Regional Weather Roundup
Issued by NWS

Home | Current Version | Previous Version | Text Only | Print | Product List | Glossary Off
Versions: 1 2 3 4 5 6 7 8 9 10 11 12 13 14 15 16 17 18 19 20 21 22 23 24 25 26 27 28 29 30 31 32 33 34 35 36 37 38 39 40 41 42 43 44 45 46 47 48 49 50

000
ASUS45 KBOU 060710
RWRCO

WEATHER ROUNDUP FOR COLORADO
NATIONAL WEATHER SERVICE DENVER/BOULDER CO
100 AM MDT MON JUL 06 2015

NOTE: "FAIR" INDICATES FEW OR NO CLOUDS BELOW 12000 FEET WITH NO
SIGNIFICANT WEATHER AND/OR OBSTRUCTIONS TO VISIBILITY.

COZ001>005-013-030-031-060800-
...NORTHWEST COLORADO...

CITY           SKY/WX    TMP DP  RH WIND       PRES   REMARKS
CRAIG          CLEAR     53  51  93 CALM      30.22R
HAYDEN         CLEAR     55  50  82 E3        30.23R
MEEKER         CLEAR     56  53  90 CALM      30.22S
MOUNT WERNER   NOT AVBL
STEAMBOAT SPGS CLOUDY    53  53  99 CALM      30.25S
WALDEN         MOCLDY    50  48  93 E6        30.30S
$$

COZ006>008-011-060800-
...WEST CENTRAL VALLEYS...

CITY           SKY/WX    TMP DP  RH WIND       PRES   REMARKS
GRAND JUNCTION CLOUDY    66  59  78 SE10      30.11S
MONTROSE       CLOUDY    60  56  86 SE6       30.21R
EAGLE          MOCLDY    57  57 100 CALM      30.25S
RIFLE          MOCLDY    61  58  90 SE5       30.17S
DELTA          CLOUDY    63  59  87 NE5       30.16F
NUCLA          CLOUDY    63  55  77 SW3       30.23F
$$

COZ017>023-064>068-060800-
...SOUTHWEST COLORADO...

CITY           SKY/WX    TMP DP  RH WIND       PRES   REMARKS
DURANGO        PTCLDY    62  50  64 SW5       30.19F
CORTEZ         PTCLDY    65  53  65 NE6       30.18F
PAGOSA SPRINGS PTCLDY    56  51  84 CALM      30.27S
TELLURIDE      MOCLDY    51  50  94 CALM      30.42S
WOLF CREEK PAS NOT AVBL
$$

COZ009-010-012-014-032>034-037-058>063-060800-
...CENTRAL COLORADO...

CITY           SKY/WX    TMP DP  RH WIND       PRES   REMARKS
ASPEN          MOCLDY    53  50  89 SW7       30.30S
BUENA VISTA    CLOUDY    60  48  64 NW7       30.27F
COPPER MTN     CLOUDY    46  41  81 W9        30.57S
BERTHOUD PASS  HAZE      37  30  75 NW21G28   30.58R VSB<1/4
COTTONWOOD PAS NOT AVBL
GUNNISON       MOCLDY    55  48  76 CALM      30.33S
KREMMLING      MOCLDY    55  52  88 CALM      30.29R
LEADVILLE      MOCLDY    48  47  96 N5        30.42R
SALIDA         CLOUDY    64  52  66 CALM      30.32S
SUNLIGHT       PTCLDY    50  46  87 N5        30.52F
WILKERSON PASS CLOUDY    50  37  62 NW7       30.52S
$$

COZ069>075-060800-
...SAN LUIS VALLEY/SANGRE DE CRISTO MOUNTAINS...

CITY           SKY/WX    TMP DP  RH WIND       PRES   REMARKS
ALAMOSA        CLOUDY    58  54  86 S6        30.27F
LA VETA PASS   LGT RAIN  48  43  81 MISG      30.42S
SAGUACHE       CLOUDY    59  52  77 NW10      30.28F
$$

COZ035-036-038>040-060800-
...NORTHERN COLORADO FRONT RANGE...

CITY           SKY/WX    TMP DP  RH WIND       PRES   REMARKS
DENVER INTL AP LGT RAIN  63  59  87 N9        30.14R
DMNS CITY PARK   N/A     64  61  87 NE3G12    30.14R
AURORA         LGT RAIN  62  60  93 N8        30.16R
FRONT RANGE AP NOT AVBL
ERIE MUNI ARPT CLOUDY    64  60  89 CALM      30.13R
BOULDER MUN AP MOCLDY    64  61  88 CALM      30.14R
CENTENNIAL     MOCLDY    63  59  87 NE3       30.17R
BROOMFIELD     MOCLDY    63  59  88 CALM      30.17R
FORT COLLINS   CLOUDY    64  57  77 N12       30.13R
LONGMONT       CLOUDY    67  62  86 CALM      30.14R
$$

COZ041-046-047-076>085-087-088-060800-
...PIKES PEAK/PALMER DIVIDE AND SOUTHERN FOOTHILLS...

CITY           SKY/WX    TMP DP  RH WIND       PRES   REMARKS
COLO. SPRINGS  RAIN      63  58  83 N20       30.15R
A. F. ACADEMY  CLOUDY    61  57  86 N9        30.17R
ELLICOTT       CLOUDY   N/A N/A N/A E13G24    30.15R
FALCON         RAIN      59  57  94 N16G22    30.20R
FORT CARSON    LGT RAIN  65  59  82 NE9       30.13R
LIMON          CLOUDY    63  59  87 N10       30.10S
MONUMENT HILL  CLOUDY    57  55  94 MISG      30.23S
TRINIDAD       CLOUDY    70  56  61 NE12      30.12R
$$

COZ042>045-048>051-090-091-060800-
...NORTHEAST COLORADO...

CITY           SKY/WX    TMP DP  RH WIND       PRES   REMARKS
GREELEY ARPT   CLOUDY    66  57  72 N20       30.11S
AKRON          CLOUDY    64  62  93 NW10      30.06R
BURLINGTON     CLOUDY    69  61  75 NW15      29.98R
WRAY           CLOUDY    67  66  94 N9G18     29.96S
STERLING       CLOUDY    68  63  83 N6          N/A
HOLYOKE        DRIZZLE   68  63  83 N9        29.98F
FORT MORGAN    LGT RAIN  65  58  78 NW13      30.08R
$$

COZ086-089-092>099-060800-
...SOUTHEAST COLORADO...

CITY           SKY/WX    TMP DP  RH WIND       PRES   REMARKS
PUEBLO         CLOUDY    74  57  55 NE14G24   30.06R
LA JUNTA       LGT RAIN  68  62  81 N21       29.99F
LAMAR          CLOUDY    75  59  57 N13G24    29.90R
SPRINGFIELD      N/A     72  61  68 SW8       29.95R
$$



USA.gov is the U.S. government's official web portal to all federal, state and local government web resources and services.